EW8081 Weather Reports


Display with metric or nautical units.
time (UTC)temp
F
wind
direction
speed
MPH
gust
MPH
rain 1hr
in
rain 24hr
in
rain mn
in
humidity
%
barometer
mb
20260904091549 62 48 3.0 8.0 0.00 0.00 0.00 75 1016.9
20260904090052 62 350 3.0 9.0 0.00 0.00 0.00 76 1016.8
20260904084549 62 50 1.0 5.0 0.00 0.00 0.00 78 1016.6
20260904083048 62 345 2.0 6.0 0.00 0.00 0.00 76 1016.6
20260904081548 63 50 1.0 6.0 0.00 0.00 0.00 75 1016.4
20260904080051 63 29 3.0 9.0 0.00 0.00 0.00 74 1016.4
20260904074544 63 28 2.0 6.0 0.00 0.00 0.00 75 1016.2
20260904073050 64 53 3.0 8.0 0.00 0.00 0.00 74 1015.9
20260904071544 64 37 3.0 9.0 0.00 0.00 0.00 73 1015.8
20260904070043 65 348 5.0 11.0 0.00 0.00 0.00 69 1015.7
20260904064541 67 88 5.0 10.0 0.00 0.00 0.00 65 1015.7
20260904063040 70 51 3.0 9.0 0.00 0.00 0.00 60 1015.6
20260904061547 70 360 4.0 11.0 0.00 0.00 0.00 60 1015.6
20260904060037 71 36 3.0 10.0 0.00 0.00 0.00 53 1015.6
20260904054538 72 360 5.0 12.0 0.00 0.00 0.00 57 1015.7
20260904053036 73 91 6.0 12.0 0.00 0.00 0.00 56 1015.7
20260904051535 74 27 6.0 12.0 0.00 0.00 0.00 52 1015.8
20260904050032 75 5 3.0 9.0 0.00 0.00 0.00 53 1016.1
20260904044541 77 279 1.0 5.0 0.00 0.00 0.00 51 1016.2
20260904043030 77 197 1.0 6.0 0.00 0.00 0.00 50 1016.4
20260904041535 77 174 2.0 4.0 0.00 0.00 0.00 50 1016.6
20260904040026 77 22 1.0 3.0 0.00 0.00 0.00 52 1016.7
20260904034525 74 178 3.0 7.0 0.00 0.00 0.00 52 1016.9
20260904033022 76 172 2.0 6.0 0.00 0.00 0.00 47 1017.2
20260904031520 75 160 1.0 6.0 0.00 0.00 0.00 50 1017.3
20260904030019 75 65 1.0 6.0 0.00 0.00 0.00 48 1017.5
20260904024519 75 182 3.0 9.0 0.00 0.00 0.00 48 1017.6
20260904023018 78 185 0.0 5.0 0.00 0.00 0.00 44 1017.8
20260904021516 77 193 1.0 5.0 0.00 0.00 0.00 44 1018.2
20260904020014 75 93 1.0 6.0 0.00 0.00 0.00 37 1018.5
20260904014512 75 16 2.0 9.0 0.00 0.00 0.00 37 1018.6
20260904013009 76 305 0.0 8.0 0.00 0.00 0.00 38 1019.1
20260904011508 74 343 1.0 9.0 0.00 0.00 0.00 38 1019.3
20260904010007 75 316 4.0 8.0 0.00 0.00 0.00 40 1019.5
20260904004506 74 301 2.0 9.0 0.00 0.00 0.00 40 1019.5
20260904003103 72 291 3.0 12.0 0.00 0.00 0.00 43 1019.5
20260904001559 72 264 5.0 11.0 0.00 0.00 0.00 43 1019.6
20260904000100 71 307 2.0 12.0 0.00 0.00 0.00 45 1019.7
20260903234554 70 283 7.0 13.0 0.00 0.00 0.00 45 1019.8
20260903233052 69 347 5.0 13.0 0.00 0.00 0.00 46 1020.0
20260903231601 68 299 6.0 16.0 0.00 0.00 0.00 47 1020.3
20260903230046 67 295 9.0 16.0 0.00 0.00 0.00 48 1020.4
20260903224543 66 307 7.0 15.0 0.00 0.00 0.00 51 1020.4
20260903223044 63 304 9.0 16.0 0.00 0.00 0.00 55 1020.4
20260903221539 62 298 9.0 18.0 0.00 0.00 0.00 57 1020.5
20260903220055 60 302 7.0 14.0 0.00 0.00 0.00 59 1020.5
20260903214530 60 274 7.0 12.0 0.00 0.00 0.00 60 1020.4
20260903213030 59 309 4.0 10.0 0.00 0.00 0.00 63 1020.3
20260903211526 58 311 5.0 13.0 0.00 0.00 0.00 64 1020.0
20260903210026 57 280 7.0 13.0 0.00 0.00 0.00 64 1019.8
20260903204523 57 281 5.0 11.0 0.00 0.00 0.00 65 1019.6
20260903203025 56 336 4.0 11.0 0.00 0.00 0.00 65 1019.5
20260903201523 56 303 5.0 11.0 0.00 0.00 0.00 65 1019.6
20260903200036 56 309 6.0 11.0 0.00 0.00 0.00 65 1019.3
20260903194532 56 307 7.0 11.0 0.00 0.00 0.00 66 1019.0
20260903193014 56 301 6.0 11.0 0.00 0.00 0.00 66 1018.7
20260903191517 55 286 4.0 9.0 0.00 0.00 0.00 66 1018.8
20260903190009 55 294 4.0 8.0 0.00 0.00 0.00 66 1018.6
20260903184507 56 279 4.0 9.0 0.00 0.00 0.00 65 1018.6
20260903183004 56 283 2.0 12.0 0.00 0.00 0.00 63 1018.7
20260903181638 57 293 4.0 10.0 0.00 0.00 0.00 63 1018.3
20260903180058 57 324 4.0 10.0 0.00 0.00 0.00 62 1018.1
20260903174601 58 285 6.0 15.0 0.00 0.00 0.00 61 1018.0
20260903173104 58 284 5.0 14.0 0.00 0.00 0.00 61 1017.8
20260903171600 58 309 7.0 13.0 0.00 0.00 0.00 62 1017.7
20260903170050 58 278 5.0 9.0 0.00 0.00 0.00 61 1017.9
20260903164547 58 281 3.0 10.0 0.00 0.00 0.00 61 1018.0
20260903163043 58 307 4.0 10.0 0.00 0.00 0.00 60 1018.3
20260903161558 59 314 5.0 11.0 0.00 0.00 0.00 59 1018.4
20260903160039 59 290 4.0 11.0 0.00 0.00 0.00 59 1018.5
20260903154537 59 288 5.0 15.0 0.00 0.00 0.00 58 1018.5
20260903153035 59 317 8.0 18.0 0.00 0.00 0.00 58 1018.5
20260903151533 59 291 7.0 15.0 0.00 0.00 0.00 59 1018.5
20260903150031 59 291 5.0 12.0 0.00 0.00 0.00 60 1018.4
20260903144529 59 288 2.0 9.0 0.00 0.00 0.00 60 1018.8
20260903143035 59 265 2.0 9.0 0.00 0.00 0.00 59 1018.9
20260903141523 59 272 3.0 11.0 0.00 0.00 0.00 59 1019.0
20260903140021 60 286 1.0 10.0 0.00 0.00 0.00 58 1018.9
20260903134517 61 281 3.0 16.0 0.00 0.00 0.00 57 1018.6
20260903133019 61 317 4.0 10.0 0.00 0.00 0.00 57 1018.6
20260903131520 61 305 5.0 11.0 0.00 0.00 0.00 57 1018.2
20260903130011 62 311 6.0 12.0 0.00 0.00 0.00 56 1018.0
20260903124507 62 288 5.0 13.0 0.00 0.00 0.00 55 1017.7
20260903123005 62 310 8.0 16.0 0.00 0.00 0.00 54 1017.4
20260903121502 63 313 6.0 14.0 0.00 0.00 0.00 53 1017.4
20260903114557 64 297 4.0 12.0 0.00 0.00 0.00 54 1016.8
20260903113054 64 305 5.0 11.0 0.00 0.00 0.00 56 1016.7
20260903111552 65 327 6.0 15.0 0.00 0.00 0.00 54 1016.6
20260903110050 65 331 6.0 13.0 0.00 0.00 0.00 54 1016.4
20260903104549 65 291 4.0 8.0 0.00 0.00 0.00 53 1016.0
20260903103047 66 300 4.0 12.0 0.00 0.00 0.00 51 1015.9
20260903101545 67 304 3.0 9.0 0.00 0.00 0.00 50 1015.6
20260903100043 67 287 3.0 11.0 0.00 0.00 0.00 49 1015.2
20260903094543 68 301 3.0 12.0 0.00 0.00 0.00 47 1015.1
20260903093040 68 324 5.0 12.0 0.00 0.00 0.00 46 1014.6